Regional Weather Roundup
Issued by NWS Upton, NY

Current Version | Previous Version | Text Only | Print | Product List | Glossary On
Versions: 1 2 3 4 5 6 7 8 9 10 11 12 13 14 15 16 17 18 19 20 21 22 23 24 25 26 27
000
ASUS41 KOKX 271504
RWROKX

REGIONAL WEATHER ROUNDUP
NATIONAL WEATHER SERVICE NEW YORK NY
1100 AM EDT FRI MAY 27 2016

NOTE: "FAIR" INDICATES FEW OR NO CLOUDS BELOW 12,000 FEET WITH NO
SIGNIFICANT WEATHER AND/OR OBSTRUCTIONS TO VISIBILITY.

NYZ071-072-176-178-NJZ106-104-271600-
NEW YORK CITY METRO AREA


CITY           SKY/WX    TMP DP  RH WIND       PRES   REMARKS
CENTRAL PARK   SUNNY     82  62  50 VRB6      30.08F
LAGUARDIA APRT MOSUNNY   82  67  60 SE9       30.05F
KENNEDY INTL   PTSUNNY   73  63  70 S8        30.09R
NEWARK/LIBERTY MOSUNNY   82  64  54 VRB3      30.05F
BRNX BOT. GARD   N/A     81  63  54 SE2       30.08F
TETERBORO      SUNNY     82  60  47 SE9G21    30.04F
$$

NYZ177-179-078>081-271600-
LONG ISLAND NEW YORK

CITY           SKY/WX    TMP DP  RH WIND       PRES   REMARKS
FARMINGDALE    SUNNY     77  64  64 S7        30.08S
ISLIP          PTSUNNY   76  64  66 S9        30.08S
SHIRLEY        SUNNY     74  63  68 S9        30.10R
RIVERHEAD        N/A     77  64  65 CALM      30.08R
WESTHAMPTON    CLOUDY    71  61  70 S9        30.11R
EAST HAMPTON   FAIR      67  59  75 S10       30.09S
MONTAUK POINT    N/A     66  60  81 VRB5      30.12R
$$

NYZ052-065-067-271600-
HUDSON VALLEY

CITY           SKY/WX    TMP DP  RH WIND       PRES   REMARKS
WHITE PLAINS   MOSUNNY   79  65  62 S8        30.07F
NEWBURGH       PTSUNNY   77  66  69 VRB5      30.07F
MONTGOMERY     CLOUDY    79  67  66 SW7       30.05S
POUGHKEEPSIE   CLOUDY    80  63  55 SE7       30.04F
ALBANY         PTSUNNY   78  60  53 S7        30.03S
$$

NJZ001-105-106-008-010-013-015-019>022-104-271600-
NEW JERSEY

CITY           SKY/WX    TMP DP  RH WIND       PRES   REMARKS
NEWARK/LIBERTY MOSUNNY   82  64  54 VRB3      30.05F
TETERBORO      SUNNY     82  60  47 SE9G21    30.04F
CALDWELL       SUNNY     82  63  52 S3        30.06S
MORRISTOWN     PTSUNNY   81  66  61 W6        30.06F
SOMERVILLE     SUNNY     82  68  62 VRB5      30.04S
SUSSEX         CLOUDY    79  66  64 CALM      30.06S
ANDOVER          N/A     80  66  62 VRB6      30.06S
TRENTON        SUNNY     82  67  60 VRB5      30.06S
MILLVILLE      SUNNY     81  67  62 S8        30.08S
ATLANTIC CITY  SUNNY     83  66  56 SW9       30.08S
WRIGHTSTOWN    SUNNY     83  69  61 S7        30.04F
TOMS RIVER     SUNNY     88  64  45 SW9       30.07S
BELMAR         SUNNY     83  67  58 SW6       30.09R
$$

PAZ047>061-062-071-271600-
EASTERN PENNSYLVANIA

CITY           SKY/WX    TMP DP  RH WIND       PRES   REMARKS
PHILADELPHIA   MOSUNNY   82  65  56 W12       30.07R
ALLENTOWN      SUNNY     81  68  64 CALM      30.06S
SCRANTON       SUNNY     80  65  59 W7        30.07S
$$

CTZ002-004>006-009-010-012-RIZ004-006-007-MAZ004-011-015-271600-
SOUTHERN NEW ENGLAND
 IN CT

CITY           SKY/WX    TMP DP  RH WIND       PRES   REMARKS
BRADLEY INTL   PTSUNNY   80  61  52 S7        30.05F
HARTFORD       CLOUDY    80  63  55 S6        30.06S
DANBURY        CLOUDY    79  64  60 MISG      30.09S
WTRBRY/OXFORD  MOSUNNY   75  63  64 SW5       30.10S
BRIDGEPORT     MOSUNNY   68  60  75 E7        30.08S
MERIDEN        CLOUDY    77  62  59 S7        30.07S
NEW HAVEN      CLOUDY    73  62  68 E3        30.08S
CHESTER        FAIR      77  63  61 VRB3      30.09S
GROTON         CLOUDY    70  63  78 SE7       30.09S
WILLIMANTIC    MOSUNNY   80  61  52 VRB6      30.08F

 IN RI

CITY           SKY/WX    TMP DP  RH WIND       PRES   REMARKS
PROVIDENCE     MOSUNNY   72  59  63 S7        30.11R
BLOCK ISLAND   MOSUNNY   65  59  81 SW16      30.12R
WESTERLY       CLOUDY    68  57  68 VRB6      30.12R

 IN MA

CITY           SKY/WX    TMP DP  RH WIND       PRES   REMARKS
BOSTON         PTSUNNY   68  58  70 E8        30.11S
WORCESTER      MOSUNNY   71  58  63 E6        30.12R
WESTFIELD      PTSUNNY   78  59  51 CALM      30.06S
PROVINCETOWN   SUNNY     71  61  70 S6        30.12F
NANTUCKET      SUNNY     64  57  78 S14       30.13S
$$

ANZ330-335-338-340-345-350-353-355-271600-
COASTAL MARINE OBSERVATIONS


STATION/POSITION TIME  SKY/WX   TEMP    WIND        PRES    VSBY  WAVE
                                AIR SEA DIR/SP/G                  HT/PER
                 (UTC)          (F)     (DEG/KT/KT) (MB)    (MI)  (FT/S)
NY HARB ENTRANCE 1350            62 60  180/ 12/ 14 1018.0          2/ 8
20S FIRE ISLAND  1350            60 59  180/ 10/ 10 1018.7          2/ 7
GREAT SOUTH BAY  1400            64 68  210/  6/ 10   N/A
23 SSW MONTAUK P 1450            59 57  210/ 10/ 12 1019.0          2/ 8
15 E BARNEGAT LI 1422               60                N/A           3/ 5
HUDSON CANYON    1350            60 56              1019.9          3/ 7
KINGS POINT      1400            65 61              1018.0
EXECUTION ROCKS  NOT AVBL
CENTRAL LI SOUND 1400            61      60/  8/ 10   N/A           0
EASTERN LI SOUND 1400            60 55   70/  4/  6   N/A
ROBBINS REEF     1406            72     160/ 10/ 11 1017.3
$$


>>>>>>>>>>>>>>>>>>>>>>>>>>>> KEY <<<<<<<<<<<<<<<<<<<<<<<<<<<
>                                                          <
>     SKY/WX - SKY CONDITION/PRESENT WEATHER               <
>     TMP    - TEMPERATURE IN FAHRENHEIT                   <
>     DP     - DEWPOINT IN FAHRENHEIT                      <
>     RH     - RELATIVE HUMIDITY IN PERCENT                <
>     WIND   - DIRECTION AND SPEED IN MPH                  <
>     PRES   - MEAN SEA LEVEL PRESSURE IN INCHES OF HG     <
>     WCI    - WIND CHILL INDEX                            <
>     VSB    - VISIBILITY IN MILES                         <
>     HX     - HEAT INDEX                                  <
>     TC     - TEMPERATURE IN CELSIUS                      <
>     VRB    - VARIABLE WIND DIRECTION                     <
>                                                          <
>>>>>>>>>>>>>>>>>>>>>>>>>>>> KEY <<<<<<<<<<<<<<<<<<<<<<<<<<<






USA.gov is the U.S. government's official web portal to all federal, state and local government web resources and services.